Location: Asheville, NC
(35.6000°N, 82.5500°W)
Time: 00:22:31
(UTC-04:00)

RS-15 - Pass Details

Date: 16 March 2018
Orbit: 1890 x 2154 km, 64.8° (Epoch: 22 June)

Event Time Altitude Azimuth Distance (km) Brightness Sun altitude
Exits shadow 05:06:55 - 308° (NW) 5,653 10.2 -31.2°
Rises 05:07:02 0° 309° (NW) 5,632 10.2 -31.1°
Reaches altitude 10° 05:13:43 10° 334° (NNW) 4,580 9.9 -29.9°
Maximum altitude 05:18:58 13° 1° (N) 4,247 10.0 -28.9°
Drops below altitude 10° 05:24:07 10° 29° (NNE) 4,484 10.5 -27.9°
Sets 05:30:29 0° 54° (NE) 5,421 11.5 -26.7°
